Weather History for Burnet, TX

Change the Weather History Date:

Sunday, April 13, 2014

  Actual Average Record
Temperature  
Mean Temperature 72 °F -  
Max Temperature 78 °F 74 °F 86 °F (2006)
Min Temperature 66 °F 52 °F 34 °F (1997)
Cooling Degree Days 7    
Growing Degree Days 22 (Base 50)    
Moisture  
Dew Point 63 °F    
Average Humidity 78    
Maximum Humidity 90    
Minimum Humidity 61    
Precipitation  
Precipitation 0.00 in - - ()
Sea Level Pressure  
Sea Level Pressure 29.75 in    
Wind  
Wind Speed 12 mph (South)    
Max Wind Speed 16 mph    
Max Gust Speed 29 mph    
Visibility 9 miles    
Events Rain    
Averages and records for this station are not official NWS values.
T = Trace of Precipitation, MM = Missing Value Source: NWS Daily Summary

Daily Weather History Graph

Daily Weather History Graph

Search for Another Location

Airport:

Trip Planner

Search our weather history database for the weather conditions in past years. The results will help you decide how hot, cold, wet, or windy it might be!

Date:

Astronomy

Apr. 13, 2014 Rise Set
Actual Time 7:07 AM CDT 7:59 PM CDT
Civil Twilight 6:42 AM CDT 8:24 PM CDT
Nautical Twilight 6:13 AM CDT 8:53 PM CDT
Astronomical Twilight 5:44 AM CDT 9:23 PM CDT
Moon 6:43 PM CDT (4/13) 6:00 AM CDT (4/13)
Length of Visible Light 13h 41m
Length of Day
12h 52m
Waxing Gibbous, 97% of the Moon is Illuminated
Apr 13
Waxing Gibbous
Apr 15
Full
Apr 22
Last Quarter
Apr 29
New
May 6
First Quarter

Hourly Weather History & Observations

Time (CDT) Temp. Dew Point Humidity Pressure Visibility Wind Dir Wind Speed Gust Speed Precip Events Conditions
12:53 AM 69.1 °F 62.1 °F 78% 29.81 in 10.0 mi South 15.0 mph 28.8 mph N/A   Overcast
1:53 AM 69.1 °F 62.1 °F 78% 29.81 in 10.0 mi South 15.0 mph 26.5 mph N/A   Overcast
2:53 AM 68.0 °F 61.0 °F 78% 29.81 in 10.0 mi South 11.5 mph 20.7 mph N/A   Overcast
3:53 AM 68.0 °F 61.0 °F 78% 29.80 in 10.0 mi South 16.1 mph 23.0 mph N/A   Overcast
4:05 AM 66.9 °F 61.0 °F 81% 29.84 in 9.0 mi South 12.7 mph 21.9 mph N/A   Overcast
4:53 AM 66.9 °F 62.1 °F 84% 29.80 in 6.0 mi SSW 8.1 mph - N/A   Haze
5:53 AM 66.0 °F 63.0 °F 90% 29.77 in 4.0 mi South 12.7 mph 19.6 mph N/A   Overcast
6:53 AM 66.9 °F 61.0 °F 81% 29.74 in 9.0 mi South 13.8 mph 27.6 mph N/A   Overcast
7:10 AM 66.9 °F 61.0 °F 81% 29.79 in 9.0 mi SSE 15.0 mph 27.6 mph N/A   Overcast
7:27 AM 66.9 °F 61.0 °F 81% 29.79 in 9.0 mi SSE 11.5 mph 21.9 mph N/A   Overcast
7:53 AM 66.9 °F 61.0 °F 81% 29.77 in 9.0 mi South 9.2 mph 18.4 mph N/A   Overcast
8:53 AM 68.0 °F 62.1 °F 81% 29.79 in 9.0 mi South 13.8 mph 18.4 mph N/A   Overcast
9:53 AM 70.0 °F 63.0 °F 78% 29.81 in 8.0 mi South 11.5 mph - N/A   Mostly Cloudy
10:53 AM 70.0 °F 63.0 °F 78% 29.83 in 9.0 mi SW 10.4 mph - N/A   Overcast
11:23 AM 71.1 °F 63.0 °F 75% 29.87 in 10.0 mi SSW 9.2 mph - 0.00 in Rain Light Rain
11:53 AM 72.0 °F 63.0 °F 73% 29.82 in 10.0 mi SSW 10.4 mph - 0.00 in   Overcast
12:24 PM 72.0 °F 63.0 °F 73% 29.86 in 9.0 mi SSW 11.5 mph - 0.00 in   Overcast
12:53 PM 72.0 °F 63.0 °F 73% 29.80 in 10.0 mi SSW 6.9 mph - 0.00 in   Overcast
1:53 PM 71.1 °F 64.9 °F 81% 29.75 in 8.0 mi South 12.7 mph - 0.00 in Rain Light Rain
2:53 PM 71.1 °F 64.9 °F 81% 29.67 in 9.0 mi SSE 10.4 mph 25.3 mph 0.00 in   Scattered Clouds
3:53 PM 73.0 °F 64.0 °F 73% 29.65 in 9.0 mi South 10.4 mph 18.4 mph N/A   Clear
4:53 PM 75.0 °F 64.9 °F 71% 29.66 in 9.0 mi South 12.7 mph 18.4 mph N/A   Clear
5:26 PM 77.0 °F 64.9 °F 66% 29.69 in 9.0 mi South 15.0 mph 20.7 mph N/A   Mostly Cloudy
5:48 PM 78.8 °F 64.4 °F 61% 29.68 in 9.0 mi South 11.5 mph 20.7 mph N/A   Scattered Clouds
5:53 PM 77.0 °F 64.9 °F 66% 29.64 in 10.0 mi South 16.1 mph 20.7 mph N/A   Partly Cloudy
7:53 PM 75.9 °F 64.9 °F 69% 29.65 in 10.0 mi South 5.8 mph - N/A   Clear
8:53 PM 73.0 °F 64.9 °F 76% 29.67 in 9.0 mi ESE 3.5 mph - N/A   Clear
9:53 PM 72.0 °F 66.9 °F 84% 29.68 in 9.0 mi SE 5.8 mph - N/A   Scattered Clouds
10:03 PM 72.0 °F 66.9 °F 84% 29.73 in 9.0 mi SE 5.8 mph - N/A   Mostly Cloudy
10:53 PM 72.0 °F 68.0 °F 87% 29.69 in 8.0 mi SSE 9.2 mph - N/A   Overcast
11:53 PM 72.0 °F 66.9 °F 84% 29.69 in 8.0 mi SSE 10.4 mph 18.4 mph N/A   Overcast